Weather History for KILM - April, 2014

Change the Weather History Date:

Tuesday, April 15, 2014

  Actual Average Record
Temperature  
Mean Temperature 62 °F 63 °F  
Max Temperature 77 °F 74 °F 92 °F (2006)
Min Temperature 47 °F 52 °F 32 °F (1907)
Degree Days  
Heating Degree Days 3 4  
Month to date heating degree days 22 85  
Since 1 July heating degree days 2369 2337  
Cooling Degree Days 0 2  
Month to date cooling degree days 58 24  
Year to date cooling degree days 65 45  
Growing Degree Days 14 (Base 50)    
Moisture  
Dew Point 63 °F    
Average Humidity 81    
Maximum Humidity 93    
Minimum Humidity 68    
Precipitation  
Precipitation 0.39 in 0.08 in 2.94 in (1989)
Month to date precipitation 0.67 1.43  
Year to date precipitation 12.52 13.02  
Snow  
Snow 0.00 in 0.00 in - ()
Month to date snowfall 0.0 0.0  
Since 1 July snowfall 1.0 1.7  
Snow Depth 0.00 in    
Sea Level Pressure  
Sea Level Pressure 29.78 in    
Wind  
Wind Speed 16 mph (SSW)    
Max Wind Speed 31 mph    
Max Gust Speed 38 mph    
Visibility 8 miles    
Events Rain    
T = Trace of Precipitation, MM = Missing Value Source: NWS Daily Summary

Daily Weather History Graph

Daily Weather History Graph

Search for Another Location

Airport or City:

Trip Planner

Search our weather history database for the weather conditions in past years. The results will help you decide how hot, cold, wet, or windy it might be!

Date:

Astronomy

Apr. 15, 2014 Rise Set
Actual Time 6:40 AM EDT 7:43 PM EDT
Civil Twilight 6:14 AM EDT 8:09 PM EDT
Nautical Twilight 5:44 AM EDT 8:39 PM EDT
Astronomical Twilight 5:12 AM EDT 9:11 PM EDT
Moon 8:20 PM EDT (4/15) 6:47 AM EDT (4/15)
Length of Visible Light 13h 54m
Length of Day
13h 02m
Full, 100% of the Moon is Illuminated
Apr 15
Full
Apr 22
Last Quarter
Apr 29
New
May 6
First Quarter
May 14
Full

Hourly Weather History & Observations

Time (EDT) Temp. Dew Point Humidity Pressure Visibility Wind Dir Wind Speed Gust Speed Precip Events Conditions
12:05 AM 71.1 °F 66.9 °F 87% 29.90 in 9.0 mi South 13.8 mph 25.3 mph N/A   Overcast
12:12 AM 71.1 °F 66.9 °F 87% 29.90 in 9.0 mi SSE 15.0 mph 19.6 mph N/A   Overcast
12:53 AM 71.1 °F 66.9 °F 87% 29.89 in 9.0 mi SSE 15.0 mph - N/A   Overcast
1:22 AM 69.8 °F 66.2 °F 88% 29.88 in 9.0 mi South 11.5 mph - N/A   Overcast
1:53 AM 70.0 °F 66.9 °F 90% 29.87 in 9.0 mi South 13.8 mph - N/A   Overcast
2:00 AM 70.0 °F 66.9 °F 90% 29.87 in 9.0 mi South 11.5 mph - N/A   Overcast
2:53 AM 71.1 °F 66.9 °F 87% 29.86 in 10.0 mi South 13.8 mph - N/A   Overcast
3:53 AM 72.0 °F 66.9 °F 84% 29.83 in 10.0 mi South 11.5 mph - N/A   Overcast
4:53 AM 72.0 °F 68.0 °F 87% 29.81 in 10.0 mi South 16.1 mph 23.0 mph N/A   Overcast
5:53 AM 73.0 °F 68.0 °F 84% 29.80 in 10.0 mi South 18.4 mph 26.5 mph N/A   Overcast
6:53 AM 73.0 °F 68.0 °F 84% 29.79 in 10.0 mi South 15.0 mph 28.8 mph N/A   Overcast
7:53 AM 72.0 °F 69.1 °F 91% 29.78 in 4.0 mi South 18.4 mph 28.8 mph 0.02 in Rain Light Rain
8:53 AM 72.0 °F 66.9 °F 84% 29.79 in 10.0 mi SSW 13.8 mph - 0.00 in   Overcast
9:13 AM 72.0 °F 66.9 °F 84% 29.80 in 10.0 mi SSW 10.4 mph - 0.00 in Rain Light Rain
9:53 AM 73.0 °F 64.9 °F 76% 29.80 in 10.0 mi SSW 11.5 mph 19.6 mph 0.00 in   Partly Cloudy
10:53 AM 75.0 °F 64.0 °F 69% 29.79 in 10.0 mi SW 10.4 mph - N/A   Scattered Clouds
11:53 AM 73.9 °F 64.0 °F 71% 29.77 in 10.0 mi South 11.5 mph - N/A   Partly Cloudy
12:53 PM 73.9 °F 63.0 °F 68% 29.78 in 10.0 mi SSW 18.4 mph 27.6 mph N/A   Mostly Cloudy
1:53 PM 75.9 °F 64.0 °F 67% 29.75 in 10.0 mi South 17.3 mph 26.5 mph 0.00 in Rain Light Rain
2:53 PM 73.9 °F 62.1 °F 66% 29.75 in 10.0 mi SSW 19.6 mph 28.8 mph 0.00 in Rain Light Rain
3:53 PM 71.1 °F 64.0 °F 78% 29.72 in 10.0 mi South 18.4 mph 26.5 mph 0.00 in Rain Light Rain
4:46 PM 71.1 °F 64.0 °F 78% 29.68 in 10.0 mi South 16.1 mph 28.8 mph 0.00 in   Mostly Cloudy
4:53 PM 71.1 °F 64.0 °F 78% 29.68 in 10.0 mi South 16.1 mph 27.6 mph 0.00 in Rain Light Rain
5:07 PM 71.1 °F 64.9 °F 81% 29.69 in 10.0 mi South 18.4 mph 25.3 mph 0.00 in   Scattered Clouds
5:53 PM 71.1 °F 64.0 °F 78% 29.69 in 10.0 mi South 16.1 mph 26.5 mph 0.00 in   Mostly Cloudy
6:07 PM 71.1 °F 64.0 °F 78% 29.69 in 10.0 mi South 20.7 mph 32.2 mph N/A   Mostly Cloudy
6:53 PM 71.1 °F 64.9 °F 81% 29.68 in 10.0 mi South 12.7 mph 24.2 mph N/A   Mostly Cloudy
7:53 PM 71.1 °F 64.9 °F 81% 29.68 in 10.0 mi South 12.7 mph - N/A   Overcast
8:01 PM 71.1 °F 66.0 °F 84% 29.67 in 10.0 mi South 12.7 mph - 0.00 in Rain Light Rain
8:45 PM 70.0 °F 66.9 °F 90% 29.68 in 3.0 mi SSW 12.7 mph - 0.06 in Rain Rain
8:53 PM 70.0 °F 66.9 °F 90% 29.69 in 3.0 mi SW 13.8 mph 21.9 mph 0.09 in Rain Light Rain
9:25 PM 61.0 °F 57.0 °F 87% 29.73 in 1.8 mi NW 28.8 mph 38.0 mph 0.08 in Rain Heavy Rain
9:29 PM 59.0 °F 55.9 °F 90% 29.74 in 1.2 mi NNW 25.3 mph 35.7 mph 0.13 in Rain Heavy Rain
9:35 PM 57.0 °F 54.0 °F 89% 29.76 in 1.8 mi NW 24.2 mph - 0.17 in Rain Rain
9:42 PM 55.9 °F 53.1 °F 90% 29.77 in 2.5 mi NNW 25.3 mph 33.4 mph 0.22 in Rain Heavy Rain
9:50 PM 53.6 °F 51.8 °F 94% 29.79 in 2.5 mi NNW 23.0 mph 38.0 mph 0.25 in Rain Heavy Rain
9:53 PM 54.0 °F 51.1 °F 90% 29.80 in 3.0 mi NNW 26.5 mph 38.0 mph 0.26 in Rain Rain
10:53 PM 52.0 °F 48.0 °F 86% 29.86 in 10.0 mi NW 25.3 mph 38.0 mph 0.02 in   Overcast
11:53 PM 48.9 °F 45.0 °F 86% 29.90 in 10.0 mi NNW 23.0 mph 35.7 mph N/A   Overcast